Overview Statistics Trail Chart Weather Telemetry Raw packets
 

This is the latest recevied weather packets stored in our database for station/object K2CAT. If no packets are shown the sender has not sent any weather packets the latest 10 day(s).

<< 80 81 82 83 84 85 86 >>
Time Temp. Humidity Pressure Rain* Wind** Luminosity Snow
1777122689 10° C 57% 1017.4 hPa 0 mm - 130 W/m² -
1777122384 10° C 59% 1017.4 hPa 0 mm - 135 W/m² -
1777122081 9.44° C 58% 1017.3 hPa 0 mm - 133 W/m² -
1777121777 9.44° C 58% 1017.4 hPa 0 mm - 147 W/m² -
1777121474 9.44° C 59% 1017.4 hPa 0 mm - 112 W/m² -
1777121174 9.44° C 59% 1017.3 hPa 0 mm - 121 W/m² -
1777120872 9.44° C 58% 1017.4 hPa 0 mm - 131 W/m² -
1777120569 8.89° C 60% 1017.2 hPa 0 mm - 119 W/m² -
1777120264 9.44° C 59% 1017.4 hPa 0 mm - 116 W/m² -
1777119959 9.44° C 59% 1017.6 hPa 0 mm - 120 W/m² -
1777119656 8.89° C 60% 1017.5 hPa 0 mm - 107 W/m² -
1777119352 8.89° C 60% 1017.4 hPa 0 mm - 95 W/m² -
1777119052 8.89° C 62% 1017.4 hPa 0 mm - 99 W/m² -
1777118747 8.89° C 63% 1017.2 hPa 0 mm - 108 W/m² -
1777118444 8.89° C 63% 1017.2 hPa 0 mm - 112 W/m² -
1777118140 8.89° C 63% 1017.1 hPa 0 mm - 113 W/m² -
1777117837 8.89° C 65% 1017.3 hPa 0 mm - 92 W/m² -
1777117533 8.89° C 66% 1017.1 hPa 0 mm - 89 W/m² -
1777117232 8.89° C 67% 1017.1 hPa 0 mm - 89 W/m² -
1777116931 8.33° C 70% 1016.9 hPa 0 mm - 84 W/m² -
1777116627 8.33° C 73% 1016.7 hPa 0 mm - 68 W/m² -
1777116323 8.33° C 76% 1016.8 hPa 0 mm - 65 W/m² -
1777116019 7.78° C 75% 1016.8 hPa 0 mm - 56 W/m² -
1777115714 7.78° C 77% 1016.9 hPa 0 mm - 50 W/m² -
1777115410 7.78° C 77% 1016.7 hPa 0 mm - 36 W/m² -

* Rain latest hour (hover to see other rain measurements)
** Current wind speed in m/s (hover to see current wind gust speed)